Location: Unspecified
(45.3712°N, 0.6436°E)
Time: 21:53:03
(UTC+02:00)

ISS - Pass Details

Date: 18 July 2018
Orbit: 402 x 408 km, 51.6° (Epoch: 17 July)

Event Time Altitude Azimuth Distance (km) Brightness Sun altitude
Exits shadow 02:22:47 17° 299° (WNW) 1,099 -1.4 -23.4°
Maximum altitude 02:24:38 29° 350° (N) 770 -1.8 -23.4°
Drops below altitude 10° 02:27:35 10° 53° (NE) 1,471 -0.5 -23.3°
Sets 02:29:50 0° 65° (ENE) 2,333 0.5 -23.3°
